Weather History for KFCM - October, 2014

Change the Weather History Date:

Saturday, October 4, 2014

  Actual Average Record
Temperature  
Mean Temperature 44 °F -  
Max Temperature 52 °F 63 °F 86 °F (2011)
Min Temperature 36 °F 42 °F 32 °F (1999)
Degree Days  
Heating Degree Days 22    
Moisture  
Dew Point 31 °F    
Average Humidity 65    
Maximum Humidity 79    
Minimum Humidity 44    
Precipitation  
Precipitation 0.01 in - - ()
Sea Level Pressure  
Sea Level Pressure 29.77 in    
Wind  
Wind Speed 17 mph (WNW)    
Max Wind Speed 23 mph    
Max Gust Speed 33 mph    
Visibility 10 miles    
Events Rain    
Averages and records for this station are not official NWS values.
T = Trace of Precipitation, MM = Missing Value Source: NWS Daily Summary

Daily Weather History Graph

Daily Weather History Graph

Search for Another Location

Airport or City:

Trip Planner

Search our weather history database for the weather conditions in past years. The results will help you decide how hot, cold, wet, or windy it might be!

Date:

Astronomy

Oct. 04, 2014 Rise Set
Actual Time 7:15 AM CDT 6:48 PM CDT
Civil Twilight 6:46 AM CDT 7:17 PM CDT
Nautical Twilight 6:12 AM CDT 7:51 PM CDT
Astronomical Twilight 5:38 AM CDT 8:25 PM CDT
Moon 4:35 PM CDT 2:33 AM CDT
Length of Visible Light 12h 31m
Length of Day
11h 33m
Waxing Gibbous, 81% of the Moon is Illuminated
Oct 4
Waxing Gibbous
Oct 8
Full
Oct 15
Last Quarter
Oct 23
New
Oct 30
First Quarter

Hourly Weather History & Observations

Time (CDT) Temp. Windchill Dew Point Humidity Pressure Visibility Wind Dir Wind Speed Gust Speed Precip Events Conditions
12:53 AM 39.0 °F 29.0 °F 32.0 °F 76% 29.76 in 10.0 mi WNW 20.7 mph 33.4 mph 0.01 in Rain Light Rain
1:11 AM 39.0 °F 28.5 °F 32.0 °F 76% 29.74 in 10.0 mi WNW 23.0 mph 33.4 mph 0.00 in Rain Light Rain
1:32 AM 39.0 °F 29.3 °F 33.1 °F 79% 29.74 in 10.0 mi NW 19.6 mph 31.1 mph 0.00 in Rain Light Rain
1:53 AM 39.9 °F 30.2 °F 33.1 °F 77% 29.77 in 10.0 mi WNW 20.7 mph 29.9 mph 0.00 in Rain Light Rain
2:00 AM 39.9 °F 30.5 °F 33.1 °F 77% 29.75 in 10.0 mi NW 19.6 mph 28.8 mph 0.00 in   Overcast
2:53 AM 42.1 °F 33.9 °F 32.0 °F 67% 29.76 in 10.0 mi NW 17.3 mph 27.6 mph 0.00 in   Overcast
3:53 AM 41.0 °F 31.9 °F 30.9 °F 67% 29.77 in 10.0 mi WNW 19.6 mph 33.4 mph N/A   Overcast
4:53 AM 39.9 °F 31.4 °F 32.0 °F 73% 29.77 in 10.0 mi NW 16.1 mph - N/A   Overcast
5:53 AM 39.9 °F 31.8 °F 32.0 °F 73% 29.78 in 10.0 mi WNW 15.0 mph 23.0 mph N/A   Overcast
6:53 AM 39.9 °F 31.8 °F 32.0 °F 73% 29.79 in 10.0 mi WNW 15.0 mph 21.9 mph N/A   Overcast
7:53 AM 39.9 °F 31.4 °F 32.0 °F 73% 29.80 in 10.0 mi WNW 16.1 mph 25.3 mph N/A   Overcast
8:12 AM 41.0 °F 32.5 °F 32.0 °F 70% 29.78 in 10.0 mi WNW 17.3 mph 26.5 mph N/A   Mostly Cloudy
8:53 AM 41.0 °F 33.5 °F 33.1 °F 73% 29.81 in 10.0 mi West 13.8 mph - N/A   Overcast
9:00 AM 42.1 °F 34.5 °F 33.1 °F 70% 29.79 in 10.0 mi WNW 15.0 mph - N/A   Overcast
9:15 AM 42.1 °F 36.1 °F 33.1 °F 70% 29.79 in 10.0 mi West 10.4 mph 24.2 mph N/A   Overcast
9:53 AM 42.1 °F 34.2 °F 33.1 °F 70% 29.81 in 10.0 mi West 16.1 mph 23.0 mph N/A   Overcast
10:53 AM 45.0 °F 37.4 °F 33.1 °F 63% 29.82 in 10.0 mi WNW 18.4 mph 27.6 mph N/A   Mostly Cloudy
11:53 AM 48.9 °F - 33.1 °F 54% 29.81 in 10.0 mi WNW 16.1 mph 23.0 mph N/A   Partly Cloudy
12:53 PM 50.0 °F - 30.9 °F 48% 29.80 in 10.0 mi WNW 12.7 mph 24.2 mph N/A   Scattered Clouds
1:53 PM 50.0 °F - 30.9 °F 48% 29.78 in 10.0 mi NW 15.0 mph 28.8 mph N/A   Mostly Cloudy
2:53 PM 50.0 °F - 30.0 °F 46% 29.78 in 10.0 mi WNW 20.7 mph 31.1 mph N/A   Mostly Cloudy
3:53 PM 50.0 °F - 30.0 °F 46% 29.77 in 10.0 mi NW 17.3 mph 26.5 mph N/A   Clear
4:53 PM 50.0 °F - 28.9 °F 44% 29.76 in 10.0 mi WNW 19.6 mph 23.0 mph N/A   Mostly Cloudy
5:53 PM 46.0 °F 38.8 °F 28.0 °F 50% 29.76 in 10.0 mi WNW 18.4 mph 27.6 mph N/A   Mostly Cloudy
6:53 PM 45.0 °F 38.9 °F 28.0 °F 52% 29.76 in 10.0 mi WNW 12.7 mph 21.9 mph N/A   Mostly Cloudy
7:53 PM 42.1 °F 37.1 °F 28.0 °F 58% 29.76 in 10.0 mi West 8.1 mph - N/A   Clear
8:53 PM 41.0 °F 35.2 °F 28.0 °F 60% 29.75 in 10.0 mi West 9.2 mph - N/A   Clear
9:53 PM 37.9 °F 32.7 °F 28.9 °F 70% 29.74 in 10.0 mi West 6.9 mph - N/A   Clear
10:53 PM 37.9 °F 32.7 °F 28.9 °F 70% 29.73 in 10.0 mi West 6.9 mph - N/A   Clear
11:53 PM 36.0 °F 32.1 °F 28.9 °F 76% 29.71 in 10.0 mi WSW 4.6 mph - N/A   Clear